Temperature
16 16 16 16 16 15 15 15 15 14 14 14 14 14 14 14 13 13 13 13 13 13 12 12 12 12 12 12 12 12 11 11 11 11 11 11 11 11 11 10 10 10 10
16 15 15 15 15 15 15 15 14 14 14 14 14 14 13 13 13 13 13 12 12 12 12 12 12 12 12 12 11 11 11 11 11 11 11 11 11 11 10 10 10 10 10
15 15 15 15 15 14 14 14 14 14 14 14 13 13 13 13 13 13 12 12 12 12 12 12 12 11 11 11 11 11 11 11 11 11 11 11 10 10 10 10 10 10 9
15 15 15 14 14 14 14 14 14 13 13 13 13 13 13 13 13 13 12 12 12 12 12 12 11 11 11 11 11 11 11 11 10 10 10 10 10 10 10 10 10 9 9
14 14 14 14 14 14 13 13 13 13 13 13 13 13 13 12 12 12 12 12 12 12 12 11 11 11 11 11 11 11 10 10 10 10 10 10 10 10 9 9 9 9 9
14 14 14 13 13 13 13 13 13 13 12 12 12 12 12 12 12 12 12 12 12 11 11 11 11 11 11 11 10 10 10 10 10 10 10 10 9 9 9 9 9 9 8
13 13 13 13 13 13 12 12 12 12 12 12 12 12 12 12 12 12 12 11 11 11 11 11 11 10 10 10 10 10 10 10 9 9 9 9 9 9 9 9 9 9 8
13 13 13 13 13 12 12 12 12 12 12 12 12 11 11 12 11 11 11 11 11 11 11 10 10 10 10 10 10 10 10 9 9 9 9 9 9 9 8 8 8 8 8
13 12 12 12 12 12 12 12 12 11 11 11 11 11 11 11 11 11 11 11 11 10 10 10 10 10 10 10 9 9 9 9 9 9 9 9 8 8 8 8 8 8 8
12 12 12 12 12 12 12 11 11 11 11 11 11 11 11 11 11 10 10 10 10 10 10 10 10 10 9 9 9 9 9 9 9 9 9 8 8 8 8 8 7 7 7
12 12 12 12 11 11 11 11 11 11 11 10 10 10 10 10 10 10 10 10 10 10 10 10 9 9 9 9 9 8 8 8 8 8 8 8 8 8 7 7 7 7 7
11 11 11 11 11 11 11 11 10 10 10 10 10 10 10 9 9 9 9 9 9 9 9 9 9 9 8 8 8 8 8 8 8 7 7 7 7 7 7 7 7 7 7
11 11 11 11 11 11 10 10 10 10 9 9 9 9 9 9 9 9 9 8 8 8 8 8 8 8 8 8 8 7 7 7 7 7 7 7 7 7 7 6 6 6 6
11 11 10 10 10 10 10 10 9 9 9 9 8 8 8 8 8 8 8 8 8 8 8 8 8 7 7 7 7 7 7 7 7 7 6 6 6 6 6 6 6 6 6
10 10 10 10 10 10 9 9 9 9 9 8 8 8 8 8 8 8 8 7 7 7 7 7 7 7 7 7 6 6 6 6 6 6 6 6 6 5 5 5 5 5 5
9 9 9 9 9 9 9 9 9 8 8 8 8 8 8 7 7 7 7 7 7 7 6 6 6 6 6 6 6 6 6 5 5 5 5 5 5 5 5 5 5 5 4
9 8 8 9 9 8 8 8 8 8 8 7 7 7 7 7 7 7 6 6 6 6 6 6 6 6 6 5 5 5 5 5 5 5 4 4 4 4 4 4 4 4 4
8 8 8 8 8 8 8 8 7 7 7 7 7 6 6 6 6 6 6 6 5 5 5 5 5 5 5 5 4 4 4 4 4 4 4 4 4 4 4 3 3 3 3
8 8 7 7 7 7 7 7 7 7 6 6 6 6 6 6 5 5 5 5 5 5 5 5 4 4 4 4 4 4 4 4 4 3 3 3 3 3 3 3 3 3 3
7 7 7 7 7 7 6 6 6 6 6 6 6 5 5 5 5 5 5 4 4 4 4 4 4 4 3 3 3 3 3 3 3 3 3 3 3 2 2 2 2 2 2
6 6 6 6 6 6 6 6 6 5 5 5 5 5 4 4 4 4 4 4 4 3 3 3 3 3 3 3 3 2 2 2 2 2 2 2 2 2 2 2 2 2 2
6 6 6 6 6 6 5 5 5 5 5 4 4 4 4 4 4 3 3 3 3 3 2 2 2 2 2 2 2 2 2 2 2 1 1 1 1 1 1 1 1 1 1
6 5 5 5 5 5 5 5 4 4 4 4 3 3 3 3 3 3 3 2 2 2 2 2 2 2 1 1 1 1 1 1 1 1 1 1 1 1 1 1 1 1 1
5 5 5 5 4 4 4 4 4 4 3 3 3 3 3 3 2 2 2 2 2 2 1 1 1 1 1 1 0 0 0 0 0 0 0 0 0 0 0 0 0 0 0
5 4 4 4 4 4 4 3 3 3 3 3 2 2 2 2 2 2 2 1 1 1 1 0 0 0 0 -0 -0 -0 -0 -0 -0 -0 -0 -0 -0 -0 -0 -0 -0 -0 -0
4 4 4 4 3 3 3 3 3 2 2 2 2 2 2 1 1 1 1 1 1 0 0 -0 -0 -0 -0 -1 -1 -1 -1 -1 -1 -1 -1 -1 -1 -1 -1 -1 -1 -1 -1
Wind_Speed
4 4 5 5 5 5 6 6 6 5 5 6 6 5 5 5 4 4 4 3 3 2 2 2 2 1 1 1 1 2 2 3 3 3 3 2 2 3 2 3 4 4 4
4 3 4 4 4 4 5 6 6 6 6 6 5 6 6 5 5 5 4 4 4 4 3 3 3 2 1 1 2 2 2 2 3 3 2 2 2 3 2 2 2 3 4
4 3 3 3 3 4 5 5 6 6 5 5 6 6 6 6 5 5 5 4 5 5 5 4 4 3 3 2 2 2 2 2 2 2 2 1 1 1 1 1 1 1 3
3 4 3 3 4 4 4 4 5 5 5 5 6 6 6 6 6 5 5 5 4 4 5 5 4 5 5 4 3 3 2 2 1 2 2 1 1 1 2 2 1 2 2
4 4 4 4 3 3 3 3 4 4 5 5 5 5 5 5 6 6 6 5 5 4 4 4 5 5 6 5 4 4 4 3 2 2 2 1 2 2 3 3 3 1 2
4 5 4 4 3 3 3 3 3 3 4 4 4 5 5 5 6 7 6 5 5 5 5 5 5 5 6 6 6 5 6 5 4 3 2 3 4 4 3 3 3 2 3
4 5 4 5 4 4 4 3 3 3 3 4 5 5 5 6 7 7 7 5 5 5 6 5 4 4 5 4 5 5 6 7 7 6 5 6 5 5 5 4 4 4 4
3 4 4 5 5 4 4 4 4 3 3 4 5 5 5 5 6 6 6 5 5 5 5 6 5 4 4 4 3 3 4 4 6 5 6 7 6 6 7 6 6 3 1
3 4 4 5 5 4 4 4 3 3 2 3 3 4 4 4 5 5 5 4 4 4 4 4 5 5 5 4 4 4 4 4 4 4 5 5 5 6 6 3 3 2 2
4 4 4 4 5 5 5 4 3 3 3 3 3 4 4 4 4 5 5 3 3 4 3 4 5 5 5 5 5 5 5 4 2 1 1 1 2 3 6 5 5 4 2
3 3 3 4 5 5 4 3 3 3 2 2 2 2 3 4 4 4 4 4 4 4 4 3 4 5 5 5 5 5 5 3 2 2 1 1 1 1 2 3 4 5 4
1 2 2 3 4 3 4 3 3 3 2 2 1 2 2 3 3 4 4 4 3 3 4 4 4 4 4 4 5 4 3 2 1 1 1 2 2 2 2 3 3 4 4
1 2 2 3 3 3 4 4 3 2 2 2 2 2 2 2 2 3 4 4 4 3 3 3 3 4 4 3 3 3 3 2 2 2 3 3 3 3 2 1 1 1 2
1 2 2 2 2 2 3 3 3 3 3 2 2 3 3 2 2 2 2 3 3 3 2 1 2 3 3 2 1 2 2 2 3 3 3 2 1 1 1 1 2 1 1
1 1 1 2 2 2 2 2 4 4 5 5 4 4 3 3 4 4 3 3 3 3 2 1 1 1 1 0 1 1 1 1 1 1 1 1 1 1 1 1 1 1 2
1 1 1 2 2 2 2 0 1 1 2 3 3 2 3 3 2 2 3 3 3 4 3 2 1 1 2 2 2 1 1 1 1 1 1 1 1 1 1 0 0 1 2
2 2 2 2 2 2 3 3 1 2 3 1 0 1 1 1 1 1 1 1 2 5 3 2 3 3 2 2 2 2 2 2 1 1 1 1 1 1 0 0 1 1 2
1 1 1 2 2 3 3 3 3 3 1 1 2 1 0 0 1 1 2 2 1 1 2 2 3 2 2 2 2 2 2 1 1 1 1 1 1 1 1 1 1 2 2
1 1 1 1 2 2 2 2 2 2 2 1 1 1 2 2 3 3 3 2 1 1 1 2 2 2 2 2 1 1 1 2 1 1 1 1 1 1 1 1 1 2 1
1 1 1 1 2 1 2 2 2 2 2 1 1 1 1 2 2 2 2 1 1 0 1 1 1 1 2 2 1 1 1 1 1 1 1 1 1 1 2 2 2 2 2
1 1 1 2 2 2 2 2 2 2 2 1 1 1 2 2 2 1 1 1 1 0 0 0 0 0 0 0 1 1 1 1 1 1 1 1 1 1 2 2 2 2 2
1 1 1 2 2 2 2 2 2 2 2 2 1 1 2 2 1 1 1 1 0 0 0 0 0 0 0 0 0 1 1 1 1 1 1 1 1 1 1 1 2 2 1
2 2 1 1 2 3 2 2 2 2 2 2 1 1 1 1 1 1 1 1 1 1 1 1 1 0 1 1 0 0 1 1 1 1 2 2 2 1 1 2 2 2 2
2 2 2 2 2 2 2 2 2 2 2 2 1 1 1 1 1 1 1 1 1 1 1 1 1 0 0 1 1 1 1 2 2 2 2 1 1 1 1 1 2 2 2
2 2 2 2 3 3 2 2 2 2 2 2 2 1 1 1 1 1 1 1 1 1 1 0 0 0 0 1 1 1 2 2 2 1 1 1 1 1 1 2 2 2 2
2 2 2 2 3 3 3 3 2 2 2 2 1 1 1 1 1 1 1 1 1 0 0 0 1 1 1 1 1 2 2 2 2 2 1 0 1 1 2 2 3 3 3
Wind_Direction
180 184 184 189 187 184 188 198 201 196 190 189 191 189 191 194 191 186 197 188 188 205 199 180 209 201 185 211 185 182 184 172 202 243 243 239 201 200 195 196 206 204 208
175 173 176 179 181 189 200 201 198 195 195 194 194 194 198 199 192 187 200 198 193 201 207 192 211 196 192 209 186 196 201 191 185 218 244 234 228 211 194 195 204 209 213
166 162 165 168 177 197 209 205 197 192 193 194 197 201 203 202 198 196 195 197 202 207 202 198 211 192 214 222 207 209 218 214 183 188 224 229 232 209 178 218 216 228 229
167 166 176 190 196 203 204 197 196 194 196 200 202 205 205 201 199 197 194 197 206 214 208 205 206 200 210 212 212 212 203 191 183 177 206 225 213 194 153 190 234 246 238
178 185 201 203 198 195 196 204 202 198 201 203 201 205 204 203 207 201 200 202 206 215 216 216 218 219 219 212 214 206 190 187 185 186 201 210 213 187 206 208 213 225 252
194 204 206 197 194 190 196 204 205 207 208 201 206 209 215 222 219 207 202 205 208 210 219 229 233 227 230 227 229 212 195 191 195 195 209 218 223 212 202 203 194 184 247
209 211 205 200 200 203 201 193 201 212 211 207 213 210 219 231 225 215 207 201 206 212 215 221 233 241 226 222 234 228 221 214 199 196 206 219 213 205 189 201 202 202 221
213 212 208 204 203 200 192 195 205 209 209 215 216 214 218 233 224 216 206 197 209 218 216 214 216 228 230 219 215 222 234 233 220 211 213 220 216 205 194 197 198 204 242
220 223 211 200 197 194 197 200 203 198 207 218 217 215 220 243 233 217 194 203 214 225 223 214 206 218 228 205 196 217 247 264 257 240 232 229 223 208 187 156 152 158 236
237 235 222 201 194 198 206 204 197 194 207 211 227 223 220 235 237 211 196 195 215 229 235 235 226 222 219 195 197 207 229 247 252 266 278 263 234 210 195 187 186 187 204
237 232 220 208 204 204 202 196 191 195 199 205 232 246 230 233 234 209 193 197 213 225 230 238 237 223 212 202 199 208 223 217 197 198 218 245 253 238 225 216 201 192 199
231 228 229 220 211 202 192 195 190 182 191 212 234 274 272 255 239 218 204 211 212 216 232 236 231 211 206 203 204 220 212 175 173 185 212 237 239 249 254 238 223 221 219
236 239 235 228 215 195 189 190 188 183 191 215 218 242 272 276 266 242 222 221 224 225 234 232 216 201 200 205 210 200 180 179 188 209 232 239 239 242 242 250 256 244 262
253 263 248 213 210 202 190 185 186 194 200 212 223 238 258 270 270 252 243 235 232 240 246 232 207 177 171 188 205 214 202 196 197 217 230 242 252 248 235 220 218 218 253
253 269 256 215 198 207 205 205 206 213 205 204 214 217 220 244 254 239 224 222 216 215 155 94 72 96 163 191 223 225 224 205 219 228 220 230 255 262 274 267 207 194 216
247 254 242 221 207 197 187 309 322 248 238 220 213 212 227 242 257 251 245 238 211 160 134 154 188 201 208 214 214 229 242 242 244 225 212 213 213 220 264 329 140 190 217
232 230 229 212 201 197 189 180 224 6 39 57 124 234 234 251 268 312 289 230 171 150 155 191 206 214 223 221 223 219 229 240 230 212 213 220 207 190 182 252 239 234 237
248 230 210 203 203 199 198 198 194 184 179 351 5 17 94 92 55 55 68 81 102 154 194 208 218 219 217 216 222 232 229 222 208 205 207 213 204 187 192 222 233 238 238
225 226 204 193 188 191 185 176 174 172 170 168 26 12 47 70 70 66 82 96 157 200 228 221 217 215 219 218 216 225 228 220 221 219 209 204 205 201 227 241 249 263 254
220 210 158 147 151 145 142 144 148 146 147 149 164 194 97 76 75 53 55 70 108 159 236 234 232 215 204 196 191 182 216 231 215 223 229 224 228 225 233 239 249 253 249
184 182 138 119 144 151 151 156 159 153 157 160 182 175 136 134 141 133 107 79 103 153 197 228 211 213 186 157 156 176 201 240 255 247 246 243 237 246 249 248 255 257 257
170 158 145 147 149 149 151 153 150 149 151 144 134 122 121 110 125 126 112 72 33 308 157 141 128 211 236 216 183 187 208 244 282 285 282 280 271 256 252 254 263 271 273
156 146 133 134 139 133 124 129 137 144 152 153 144 129 131 133 133 135 129 99 78 62 51 65 78 360 338 309 301 183 235 267 268 259 254 259 259 252 249 254 262 273 273
154 152 150 146 135 133 139 137 138 143 147 154 151 146 148 149 150 147 132 110 91 70 72 70 60 21 351 350 335 310 281 276 273 257 250 252 263 266 262 270 269 267 268
148 153 154 155 154 153 151 148 148 148 146 142 145 144 143 141 142 143 131 112 97 77 55 22 343 356 350 318 318 314 311 320 319 298 261 267 260 262 260 262 266 270 274
133 142 152 154 158 157 157 160 160 157 155 145 142 147 154 153 152 149 143 139 128 104 64 310 286 300 305 303 296 309 326 329 326 323 333 286 272 270 271 272 267 265 271
Height
1502 1503 1504 1506 1507 1508 1509 1510 1511 1512 1513 1514 1515 1515 1516 1516 1516 1516 1516 1517 1516 1516 1516 1516 1516 1516 1516 1516 1516 1516 1516 1516 1516 1516 1517 1517 1517 1517 1517 1517 1517 1516 1516
1499 1500 1501 1503 1504 1505 1506 1507 1508 1509 1510 1511 1512 1512 1513 1513 1513 1513 1513 1513 1513 1513 1513 1513 1513 1513 1513 1513 1513 1513 1513 1513 1513 1513 1513 1513 1514 1514 1514 1514 1514 1514 1513
1497 1497 1498 1500 1501 1502 1503 1504 1505 1506 1507 1508 1508 1509 1509 1510 1510 1510 1510 1510 1510 1510 1510 1510 1510 1510 1510 1510 1510 1510 1510 1510 1510 1510 1509 1510 1510 1511 1511 1511 1511 1511 1511
1494 1495 1496 1496 1497 1498 1499 1500 1501 1503 1503 1504 1505 1505 1505 1506 1506 1506 1506 1506 1506 1506 1507 1507 1507 1507 1507 1507 1506 1506 1507 1507 1507 1506 1506 1506 1507 1507 1507 1507 1507 1508 1508
1492 1492 1492 1493 1494 1495 1496 1497 1497 1498 1499 1500 1501 1501 1501 1502 1502 1502 1502 1502 1502 1503 1503 1503 1503 1503 1503 1503 1503 1503 1503 1503 1503 1502 1502 1503 1503 1503 1504 1504 1504 1504 1504
1488 1489 1490 1490 1491 1492 1492 1493 1494 1494 1495 1496 1496 1497 1497 1497 1498 1498 1498 1498 1498 1498 1498 1499 1499 1499 1499 1500 1500 1500 1500 1499 1499 1499 1499 1499 1499 1500 1500 1500 1500 1500 1500
1485 1486 1486 1487 1488 1488 1489 1490 1490 1491 1491 1492 1492 1492 1493 1493 1494 1494 1494 1494 1494 1494 1494 1495 1495 1495 1495 1496 1496 1496 1496 1496 1496 1496 1495 1495 1495 1496 1496 1496 1496 1496 1496
1482 1482 1483 1484 1484 1485 1485 1486 1486 1487 1487 1488 1488 1488 1488 1489 1489 1490 1490 1490 1490 1490 1490 1490 1490 1491 1491 1492 1492 1492 1491 1491 1491 1492 1491 1491 1492 1492 1492 1493 1493 1493 1493
1479 1479 1479 1480 1480 1481 1481 1482 1482 1483 1483 1483 1484 1484 1484 1484 1485 1485 1485 1485 1485 1485 1485 1486 1486 1486 1487 1487 1488 1487 1487 1487 1488 1488 1488 1488 1488 1488 1489 1489 1489 1489 1488
1475 1476 1476 1477 1477 1477 1477 1478 1479 1479 1479 1479 1479 1480 1479 1480 1480 1481 1481 1481 1481 1481 1481 1481 1481 1482 1482 1483 1483 1483 1483 1483 1483 1483 1484 1484 1484 1484 1485 1485 1485 1485 1485
1472 1472 1473 1473 1473 1474 1474 1475 1475 1475 1475 1475 1475 1475 1475 1476 1476 1476 1476 1476 1476 1476 1476 1476 1476 1477 1478 1478 1479 1479 1479 1480 1479 1479 1479 1479 1479 1480 1480 1481 1481 1482 1482
1470 1469 1469 1470 1470 1470 1471 1471 1471 1471 1471 1471 1471 1471 1471 1472 1472 1472 1472 1472 1472 1471 1471 1472 1472 1473 1473 1474 1474 1475 1475 1475 1475 1475 1474 1474 1474 1475 1476 1476 1476 1477 1477
1466 1466 1466 1466 1466 1467 1467 1467 1467 1467 1467 1467 1467 1467 1467 1467 1467 1468 1468 1468 1468 1468 1467 1468 1468 1468 1469 1470 1470 1471 1471 1471 1471 1471 1470 1470 1470 1471 1471 1471 1471 1472 1473
1463 1463 1463 1463 1463 1463 1463 1463 1463 1463 1463 1463 1463 1463 1463 1463 1463 1463 1463 1464 1464 1464 1464 1464 1464 1464 1465 1465 1466 1466 1466 1466 1466 1466 1466 1466 1466 1467 1466 1466 1466 1467 1467
1460 1460 1459 1459 1459 1459 1459 1460 1460 1460 1460 1460 1459 1459 1459 1459 1459 1459 1459 1459 1459 1460 1460 1460 1460 1460 1460 1461 1461 1462 1462 1462 1462 1462 1462 1462 1462 1462 1462 1462 1462 1462 1462
1456 1456 1456 1456 1456 1455 1456 1456 1456 1457 1457 1457 1457 1456 1456 1456 1456 1456 1455 1455 1455 1456 1456 1455 1456 1456 1456 1457 1457 1457 1457 1458 1458 1458 1458 1458 1458 1458 1458 1458 1458 1458 1458
1453 1453 1453 1452 1452 1452 1452 1452 1452 1453 1453 1453 1453 1453 1453 1453 1452 1452 1451 1451 1452 1452 1452 1452 1452 1452 1453 1453 1454 1453 1453 1454 1454 1454 1454 1454 1454 1454 1454 1454 1453 1453 1453
1451 1450 1450 1449 1449 1449 1449 1449 1449 1449 1449 1449 1450 1450 1449 1449 1449 1448 1448 1448 1448 1448 1448 1448 1448 1449 1449 1449 1450 1450 1450 1450 1450 1450 1450 1450 1450 1450 1450 1449 1449 1449 1449
1448 1447 1447 1446 1446 1446 1446 1446 1446 1446 1446 1446 1446 1446 1446 1446 1446 1446 1445 1444 1444 1444 1444 1445 1445 1445 1446 1446 1446 1446 1447 1447 1446 1446 1446 1447 1447 1447 1446 1446 1446 1446 1446
1445 1444 1444 1443 1443 1443 1443 1443 1443 1443 1443 1443 1443 1443 1443 1443 1443 1442 1442 1442 1442 1442 1442 1442 1442 1442 1442 1442 1442 1442 1443 1443 1443 1443 1443 1443 1443 1443 1443 1443 1443 1443 1443
1442 1442 1441 1441 1441 1441 1441 1441 1441 1441 1441 1441 1441 1441 1441 1441 1440 1440 1440 1440 1440 1440 1440 1439 1439 1439 1439 1439 1439 1439 1440 1440 1440 1440 1440 1440 1440 1440 1440 1440 1440 1440 1440
1440 1439 1439 1439 1438 1439 1439 1439 1439 1439 1439 1439 1439 1439 1439 1439 1439 1439 1438 1438 1438 1438 1438 1438 1437 1438 1437 1437 1437 1437 1436 1436 1436 1436 1437 1437 1437 1437 1437 1437 1436 1436 1436
1438 1437 1437 1437 1437 1437 1437 1437 1437 1437 1437 1437 1437 1437 1437 1437 1437 1437 1437 1437 1437 1437 1436 1436 1436 1436 1436 1435 1435 1435 1434 1433 1434 1434 1434 1433 1433 1433 1433 1433 1433 1433 1432
1435 1435 1435 1434 1434 1434 1435 1435 1435 1435 1435 1435 1435 1435 1435 1435 1435 1435 1435 1435 1435 1435 1434 1434 1434 1434 1433 1433 1432 1432 1432 1431 1431 1431 1431 1430 1430 1430 1430 1429 1429 1429 1429
1432 1432 1432 1432 1432 1432 1432 1432 1433 1433 1433 1433 1433 1433 1433 1433 1433 1433 1433 1433 1433 1432 1432 1432 1432 1431 1431 1430 1430 1429 1429 1429 1428 1428 1427 1427 1426 1426 1426 1426 1426 1426 1426
1430 1430 1430 1430 1430 1430 1430 1430 1431 1431 1431 1431 1432 1432 1432 1432 1432 1431 1431 1431 1431 1430 1430 1430 1429 1429 1428 1428 1427 1427 1426 1426 1425 1425 1424 1423 1423 1423 1423 1422 1422 1422 1422